Flag for Germany Weather past 2 weeks in Rathenow, Brandenburg, Germany

Now
70 °F

Sunny.


Feels Like: 70 °F
Forecast: 64 / 78 °F
Wind: 1 mph from North

Location: Neuruppin

Current Time: Jul 5, 2015 at 7:13:53 AM

Latest Report: Jul 5, 2015 at 7:00 AM


Visibility: 6 mi

Pressure: 30.07 "Hg

Humidity: 92%

Dew point: 67 °F

Location of RathenowLocation

Historic Weather in Rathenow — Graph

°F

Rathenow temperature yesterday

Maximum temperature yesterday: 93 °F (at 4:00 PM)
Minimum temperature yesterday: 66 °F (at 4:00 AM)
Average temperature yesterday: 80 °F

Past Weeks' High & Low Weather Summary

 TemperatureHumidityPressure
High93 °F (Jul 4, 4:00 PM)98% (Jun 23, 2:00 AM)30.29 "Hg (Jun 23, 2:00 AM)
Low49 °F (Jun 21, 7:00 AM)36% (Jul 2, 2:00 PM)29.62 "Hg (Jun 23, 3:00 AM)
Average65 °F71%30.07 "Hg
* Reported Jun 20 4:00 AM — Jul 5 4:00 AM, Rathenow, Weather by CustomWeather, © 2015

Note: Actual official high and low records may vary slightly from our data, if they occured in-between our weather recording intervals... More about our weather records

Advertising

Rathenow weather history for previous 24 hours

 ConditionsComfort  
Time TempWeatherWind HumidityBarometerVisibility
4:00 AM
Sun, Jul 5
70 °FClear.1 mph89%30.05 "Hg6 mi
3:00 AM71 °FOvercast.1 mph86%30.06 "Hg6 mi
2:00 AM76 °FOvercast.3 mph66%30.09 "Hg6 mi
1:00 AM78 °FOvercast.2 mph59%30.09 "Hg6 mi
12:00 AM75 °FOvercast.1 mph73%30.07 "Hg6 mi
10:00 PM
Sat, Jul 4
83 °FClear.1 mph49%30.04 "Hg6 mi
9:00 PM86 °FPartly sunny.2 mph52%30.04 "Hg6 mi
8:00 PM88 °FScattered clouds.1 mph48%30.03 "Hg6 mi
7:00 PM90 °FPassing clouds.2 mph40%30.02 "Hg6 mi
6:00 PM92 °FSunny.5 mph41%30.04 "Hg6 mi
4:00 PM93 °FSunny.5 mph38%30.07 "Hg6 mi
3:00 PM92 °FSunny.5 mph40%30.08 "Hg6 mi
2:00 PM91 °FSunny.6 mph41%30.09 "Hg6 mi
1:00 PM89 °FSunny.5 mph48%30.11 "Hg6 mi
12:00 PM86 °FSunny.5 mph57%30.13 "Hg6 mi
11:00 AM86 °FSunny.2 mph53%30.14 "Hg6 mi
10:00 AM81 °FSunny.1 mph57%30.14 "Hg6 mi
9:00 AM77 °FSunny.1 mph54%30.15 "Hg6 mi
8:00 AM72 °FSunny.2 mph64%30.16 "Hg6 mi
7:00 AM69 °FSunny.1 mph68%30.17 "Hg6 mi
Weather by CustomWeather, © 2015

See weather overviewHow to use our weather pages